Location: Veytaux
(46.4185°N, 6.9320°E)
Time: 08:30:12
(UTC+00:00)

Cosmos 1461 - Pass Details

Date: 27 May 2022
Orbit: 516 x 638 km, 65.0° (Epoch: 01 July)

Event Time Altitude Azimuth Distance (km) Brightness Sun altitude
Rises 00:06:37 0° 316° (NW) 2,744 6.9 -21.8°
Reaches altitude 10° 00:08:57 10° 306° (NW) 1,865 5.8 -21.7°
Enters shadow 00:11:50 29° 267° (W) 1,058 4.1 -21.6°
